[[{"header":{"parameterUnit":"m.s-1","parameterCategory":1,"la1":30.2991,"la2":30.254,"lo1":-89.0895,"lo2":-89.0444,"dy":0.0017,"dx":0.0017,"nx":28,"ny":28,"refTime":"2023-09-29T09:00:00:Z","depth":0,"parameterNumber":2,"parameterNumberName":"U-component_of_WINDS"},"data":[0,0,0,0,0,0,0,0,0,0,0,0,0,0,0,0,0,0,0,0,0,0,0,0,0,0,0,0,0,0,0,0,0,0,0,0,0,0,0,0,0,0,0,0,0,0,0,0,0,0,0,0,0,0,0,0,0,0,-0.9945,-0.9945,0,-0.998,-0.9981,-0.9981,-0.9914,-0.9912,-0.991,-0.9908,-0.9949,-0.9952,-0.9955,0,0,0,0,0,0,0,0,0,0,0,0,0,-0.9823,-0.9826,-0.9945,-0.9945,-0.9946,-0.998,-0.9981,-0.9981,-0.9915,-0.9912,-0.9909,-0.9907,-0.9948,-0.9952,-0.9955,0,0,0,0,0,0,0,0,0,0,0,0,0,-0.9869,-0.9827,-0.9945,-0.9916,-0.9914,-0.998,-0.9981,-0.9981,-0.9915,-0.9912,-0.9909,-0.9905,-0.9947,-0.9951,-0.9956,-1.0052,0,0,-0.9971,-0.9973,0,0,0,0,0,0,0,0,-0.9867,-0.9874,-0.992,-0.9918,-0.9916,-0.9939,-0.9953,-1.0005,-0.9916,-0.9915,-0.9908,-0.9904,-0.9949,-0.9953,-0.9967,-1.0054,-1.0056,-0.9971,-0.9974,-0.9976,-0.9977,0,0,0,0,0,0,0,-0.9864,-0.9872,-0.9959,-0.9921,-0.9919,-0.9903,-0.9906,-0.9962,-0.995,-0.9915,-0.991,-0.9915,-0.9947,-0.9963,-0.9968,-1.0057,-0.9971,-0.9975,-0.9978,-0.998,-1.0225,-1.0228,0,0,0,0,0,0,-0.9863,-0.987,-0.9958,-0.996,-0.9883,-0.9908,-0.9911,-0.9935,-0.995,-0.9948,-0.9918,-0.9912,-0.9956,-0.9962,-0.9969,-1.0083,-0.9976,-0.998,-0.9983,-1.0221,-1.0226,-1.0229,0,0,0,0,0,0,-0.9861,-0.9872,-0.9956,-0.9914,-0.9923,-0.9914,-0.9941,-0.9938,-0.9953,-0.9952,-0.995,-0.9936,-0.9954,-0.9962,-1.0032,-1.0084,-0.9982,-0.9987,-1.0217,-1.0222,-1.0228,-1.0312,0,0,0,0,0,0,-0.9858,-0.9871,-0.9907,-0.9915,-0.9926,-1.0018,-0.9944,-0.9941,-0.9961,-0.9954,-0.9968,-0.9967,-0.9952,-1.0025,-1.0037,-1.0088,-0.999,-1.0212,-1.0219,-1.0226,-1.0305,-1.032,-1.0333,0,0,0,0,0,-0.9854,-0.9931,-0.9909,-0.992,-0.997,-1.0021,-1.0027,-1.0006,-0.9966,-1.0002,-1.0001,-0.9967,-1.0076,-1.0033,-1.0045,-1.0099,-1.0209,-1.0217,-1.0225,-1.0299,-1.0317,-1.0333,0,0,0,0,0,0,-0.9931,-0.9931,-0.9907,-0.9989,-1.0005,-1.0009,-1.0055,-1.0027,-1.0056,-1.0048,-1.0022,-1.0026,-1.0101,-1.0107,-1.0059,-1.0193,-1.0136,-1.0147,-1.0187,-1.0205,-1.0218,-1.0216,-0.9994,0,0,0,0,0,-0.9957,-0.9997,-0.9995,-1.0067,-1.0077,-1.0064,-1.0086,-1.0068,-1.0085,-1.0092,-1.0096,-1.0114,-1.0153,-1.0179,-1.0214,-1.0305,-1.0308,-1.0348,-1.0362,-1.0374,-1.0384,-1.0433,-1.0452,-1.0256,-1.0256,-1.0256,0,0,-1.0013,-1.0017,-1.0045,-1.0083,-1.0094,-1.0137,-1.0071,-1.0119,-1.0152,-1.01,-1.0165,-1.0169,-1.0188,-1.0269,-1.0305,-1.0276,-1.0438,-1.0384,-1.0393,-1.0398,-1.0444,-1.0462,-1.0479,-1.0262,-1.0261,-1.026,0,0,-1.0135,-1.0142,-1.0203,-1.0215,-1.0231,-1.0222,-1.0237,-1.0245,-1.0245,-1.031,-1.0272,-1.0311,-1.0377,-1.0392,-1.0409,-1.0537,-1.0507,-1.0549,-1.0623,-1.0671,-1.0687,-1.07,-1.0747,-1.0764,-1.0559,-1.0559,-1.0559,0,-1.0203,-1.0265,-1.0239,-1.029,-1.0308,-1.0261,-1.0323,-1.0336,-1.0364,-1.0379,-1.0345,-1.0427,-1.0437,-1.0521,-1.0552,-1.0566,-1.0584,-1.0548,-1.0686,-1.07,-1.0712,-1.0756,-1.0774,-1.0564,-1.0564,-1.0563,-1.0563,0,-1.0347,-1.0391,-1.0438,-1.0464,-1.0488,-1.0545,-1.0528,-1.0556,-1.0536,-1.0531,-1.0598,-1.0608,-1.0644,-1.0662,-1.0644,-1.0744,-1.0726,-1.069,-1.0632,-1.0736,-1.0778,-1.0794,-1.0571,-1.057,-1.0568,-1.0567,0,0,-1.0522,-1.0531,-1.0549,-1.056,-1.0574,-1.0609,-1.0663,-1.0697,-1.0722,-1.0742,-1.0788,-1.0845,-1.0811,-1.083,-1.0813,-1.0856,-1.0958,-1.0814,-1.0814,-1.0842,-1.107,-1.1098,-1.1118,-1.0937,-1.094,-1.0943,-1.1069,0,-1.0645,-1.0737,-1.0714,-1.0807,-1.0848,-1.0803,-1.085,-1.0865,-1.0862,-1.0897,-1.0894,-1.0935,-1.0887,-1.0898,-1.0937,-1.0937,-1.1003,-1.0927,-1.0982,-1.0984,-1.098,-1.114,-1.117,-1.1288,-1.1085,-1.1087,-1.1089,0,-1.0801,-1.0825,-1.0921,-1.0928,-1.0944,-1.0988,-1.1017,-1.105,-1.1066,-1.1061,-1.1081,-1.1056,-1.1112,-1.1051,-1.1128,-1.1077,-1.1098,-1.1101,-1.1105,-1.1111,-1.1044,-1.1152,-1.1326,-1.1344,-1.1114,-1.1112,-1.1111,0,-1.092,-1.0977,-1.1042,-1.1053,-1.1062,-1.1094,-1.1099,-1.1111,-1.1133,-1.1159,-1.1173,-1.1206,-1.1225,-1.1251,-1.1236,-1.1193,-1.1316,-1.1255,-1.1315,-1.1316,-1.1345,-1.1344,-1.1527,-1.1356,-1.1355,-1.1355,-1.1355,0,-1.106,-1.1121,-1.1095,-1.1136,-1.1203,-1.1176,-1.1244,-1.1245,-1.1256,-1.1297,-1.126,-1.1299,-1.1275,-1.1313,-1.1302,-1.1368,-1.1376,-1.1375,-1.1372,-1.1379,-1.138,-1.1394,-1.1386,-1.136,-1.1359,-1.1358,-1.1357,0,-1.1206,-1.1191,-1.1259,-1.1261,-1.1263,-1.1313,-1.1316,-1.1354,-1.1347,-1.1399,-1.141,-1.14,-1.1442,-1.1429,-1.1475,-1.1467,-1.1552,-1.1537,-1.1547,-1.1544,-1.1605,-1.16,-1.1805,-1.1832,-1.1642,-1.1644,-1.1646,0,-1.1297,-1.1343,-1.135,-1.1373,-1.1381,-1.142,-1.1441,-1.1417,-1.1442,-1.1463,-1.1499,-1.1537,-1.1567,-1.1638,-1.1636,-1.1671,-1.1658,-1.1727,-1.1663,-1.167,-1.1661,-1.1659,-1.1664,-1.1741,-1.1743,-1.1745,-1.1746,0,-1.1462,-1.1452,-1.1483,-1.1513,-1.1539,-1.1561,-1.158,-1.1602,-1.1579,-1.1609,-1.165,-1.1674,-1.172,-1.176,-1.1792,-1.1799,-1.177,-1.1766,-1.1782,-1.1792,-1.1796,-1.1796,-1.1583,-1.1762,-1.1761,-1.1759,-1.1759,-1.1758,-1.1584,-1.1623,-1.1633,-1.167,-1.1681,-1.17,-1.1736,-1.1732,-1.1766,-1.1801,-1.1785,-1.1834,-1.1849,-1.1888,-1.19,-1.1939,-1.1913,-1.1936,-1.1942,-1.1949,-1.1957,-1.1788,-1.1945,-1.1944,-1.1944,-1.1944,-1.1943,0,-1.1748,-1.1752,-1.1786,-1.1813,-1.1842,-1.1809,-1.1828,-1.1856,-1.1898,-1.1914,-1.1943,-1.1992,-1.203,-1.2031,-1.2067,-1.2098,-1.2086,-1.2109,-1.2107,-1.211,-1.1978,-1.1961,-1.2118,-1.2118,-1.2118,-1.2118,-1.2118,-1.2118,-1.1837,-1.19,-1.1892,-1.1961,-1.1965,-1.2011,-1.2025,-1.2043,-1.2055,-1.211,-1.2141,-1.214,-1.215,-1.2186,-1.222,-1.222,-1.2236,-1.2264,-1.2259,-1.2136,-1.2119,-1.2102,-1.2086,-1.2267,-1.2267,-1.2387,-1.2388,-1.2389]},{"header":{"parameterUnit":"m.s-1","parameterCategory":1,"la1":30.2991,"la2":30.254,"lo1":-89.0895,"lo2":-89.0444,"dy":0.0017,"dx":0.0017,"nx":28,"ny":28,"refTime":"2023-09-29T09:00:00:Z","depth":0,"parameterNumber":3,"parameterNumberName":"V-component_of_WINDS"},"data":[0,0,0,0,0,0,0,0,0,0,0,0,0,0,0,0,0,0,0,0,0,0,0,0,0,0,0,0,0,0,0,0,0,0,0,0,0,0,0,0,0,0,0,0,0,0,0,0,0,0,0,0,0,0,0,0,0,0,-0.2789,-0.2789,0,-0.2811,-0.2812,-0.2812,-0.2843,-0.2843,-0.2844,-0.2844,-0.2865,-0.2865,-0.2865,0,0,0,0,0,0,0,0,0,0,0,0,0,-0.2771,-0.2771,-0.2789,-0.2789,-0.279,-0.2811,-0.2812,-0.2812,-0.2842,-0.2843,-0.2844,-0.2844,-0.2865,-0.2865,-0.2865,0,0,0,0,0,0,0,0,0,0,0,0,0,-0.2784,-0.2771,-0.2789,-0.2808,-0.2809,-0.2811,-0.2812,-0.2812,-0.2842,-0.2843,-0.2844,-0.2845,-0.2865,-0.2865,-0.2865,-0.285,0,0,-0.2866,-0.2866,0,0,0,0,0,0,0,0,-0.2783,-0.2785,-0.2805,-0.2806,-0.2808,-0.2825,-0.2813,-0.2825,-0.2842,-0.283,-0.2844,-0.2845,-0.2851,-0.2852,-0.2855,-0.2851,-0.2852,-0.2866,-0.2866,-0.2866,-0.2866,0,0,0,0,0,0,0,-0.2782,-0.2784,-0.2798,-0.2805,-0.2807,-0.2814,-0.2817,-0.2815,-0.2836,-0.2831,-0.2833,-0.2836,-0.2852,-0.2855,-0.2855,-0.2852,-0.2866,-0.2866,-0.2866,-0.2866,-0.2837,-0.2836,0,0,0,0,0,0,-0.2779,-0.2783,-0.2797,-0.2799,-0.2798,-0.2814,-0.2817,-0.2819,-0.2836,-0.2839,-0.2835,-0.2837,-0.2854,-0.2855,-0.2856,-0.284,-0.2866,-0.2866,-0.2866,-0.2838,-0.2837,-0.2836,0,0,0,0,0,0,-0.2779,-0.278,-0.2796,-0.2792,-0.2794,-0.2813,-0.2815,-0.2819,-0.2821,-0.2839,-0.2842,-0.2834,-0.2855,-0.2856,-0.2852,-0.2841,-0.2866,-0.2866,-0.2839,-0.2838,-0.2837,-0.2807,0,0,0,0,0,0,-0.2778,-0.278,-0.2775,-0.2791,-0.2794,-0.2792,-0.2815,-0.2819,-0.2822,-0.2825,-0.2839,-0.2842,-0.2855,-0.2851,-0.2852,-0.2842,-0.2866,-0.284,-0.2838,-0.2837,-0.2809,-0.2805,-0.2801,0,0,0,0,0,-0.2777,-0.2765,-0.2774,-0.2776,-0.2789,-0.2791,-0.2793,-0.2809,-0.2821,-0.2816,-0.2827,-0.2841,-0.2842,-0.2851,-0.2851,-0.2841,-0.2841,-0.2839,-0.2837,-0.281,-0.2805,-0.2801,0,0,0,0,0,0,-0.2747,-0.2768,-0.2778,-0.2771,-0.2779,-0.2796,-0.2791,-0.2804,-0.2808,-0.2811,-0.283,-0.2833,-0.2826,-0.2833,-0.2842,-0.2827,-0.2843,-0.2842,-0.2823,-0.2818,-0.2815,-0.2813,-0.2866,0,0,0,0,0,-0.2739,-0.274,-0.2758,-0.275,-0.2754,-0.2771,-0.2773,-0.2785,-0.2794,-0.2797,-0.2808,-0.2815,-0.2817,-0.2818,-0.2821,-0.281,-0.2813,-0.2803,-0.2799,-0.2796,-0.2794,-0.2788,-0.2784,-0.283,-0.283,-0.283,0,0,-0.2724,-0.2735,-0.2735,-0.2745,-0.2752,-0.2752,-0.2774,-0.2773,-0.2773,-0.2797,-0.2794,-0.2801,-0.2811,-0.2803,-0.28,-0.2808,-0.2782,-0.2793,-0.2791,-0.2791,-0.2786,-0.2782,-0.2778,-0.2829,-0.2829,-0.2829,0,0,-0.2696,-0.2705,-0.2699,-0.2706,-0.2718,-0.2729,-0.2728,-0.2743,-0.2749,-0.2746,-0.2764,-0.2763,-0.2766,-0.2772,-0.2775,-0.2748,-0.2762,-0.2749,-0.2729,-0.2723,-0.2719,-0.2716,-0.2707,-0.2703,-0.2747,-0.2747,-0.2747,0,-0.2675,-0.2677,-0.2695,-0.2693,-0.2696,-0.2718,-0.2712,-0.2718,-0.2729,-0.273,-0.274,-0.2744,-0.2752,-0.2745,-0.2738,-0.274,-0.2739,-0.2748,-0.2719,-0.2716,-0.2713,-0.2704,-0.27,-0.2745,-0.2745,-0.2745,-0.2746,0,-0.2651,-0.2651,-0.2645,-0.2656,-0.2658,-0.2654,-0.2671,-0.2671,-0.2683,-0.2693,-0.2689,-0.2699,-0.2704,-0.2703,-0.2714,-0.2698,-0.2703,-0.2715,-0.2732,-0.2707,-0.2698,-0.2695,-0.2743,-0.2743,-0.2744,-0.2744,0,0,-0.2605,-0.2625,-0.2623,-0.2628,-0.2641,-0.2642,-0.2638,-0.2643,-0.2643,-0.265,-0.2647,-0.2648,-0.266,-0.2663,-0.2675,-0.267,-0.2648,-0.2683,-0.2683,-0.2676,-0.263,-0.2621,-0.2617,-0.2656,-0.2656,-0.2655,-0.2629,0,-0.258,-0.2576,-0.2592,-0.2583,-0.2583,-0.2603,-0.26,-0.2608,-0.2617,-0.2618,-0.2627,-0.2628,-0.2643,-0.2645,-0.2641,-0.2651,-0.2639,-0.2653,-0.2653,-0.2653,-0.2651,-0.2613,-0.2603,-0.2579,-0.2626,-0.2626,-0.2625,0,-0.2551,-0.2556,-0.2548,-0.2561,-0.2562,-0.2559,-0.2565,-0.2565,-0.2574,-0.2581,-0.2584,-0.2598,-0.2594,-0.261,-0.2605,-0.2615,-0.2615,-0.262,-0.262,-0.2621,-0.2638,-0.2613,-0.2571,-0.2567,-0.2621,-0.2621,-0.2621,0,-0.2519,-0.2524,-0.2519,-0.2523,-0.2538,-0.2536,-0.2542,-0.2551,-0.2553,-0.2557,-0.2559,-0.2563,-0.2565,-0.2567,-0.2581,-0.2591,-0.2574,-0.2591,-0.258,-0.2579,-0.2576,-0.2576,-0.2534,-0.2575,-0.2575,-0.2575,-0.2576,0,-0.2489,-0.2483,-0.2505,-0.2502,-0.2496,-0.2513,-0.2506,-0.2514,-0.2522,-0.2521,-0.2538,-0.2536,-0.2554,-0.2554,-0.2565,-0.2559,-0.256,-0.2565,-0.2568,-0.2564,-0.2563,-0.2565,-0.2567,-0.2574,-0.2575,-0.2575,-0.2575,0,-0.2453,-0.2467,-0.2464,-0.2478,-0.2482,-0.2477,-0.2489,-0.2487,-0.2496,-0.2494,-0.2495,-0.251,-0.2511,-0.2524,-0.2528,-0.2535,-0.2525,-0.2531,-0.2522,-0.2525,-0.2512,-0.2513,-0.247,-0.2465,-0.251,-0.2509,-0.2509,0,-0.2434,-0.243,-0.2444,-0.2444,-0.245,-0.245,-0.2452,-0.2469,-0.247,-0.2479,-0.2475,-0.2477,-0.248,-0.248,-0.2491,-0.2494,-0.25,-0.2485,-0.2501,-0.2496,-0.25,-0.25,-0.25,-0.2482,-0.2481,-0.2481,-0.248,0,-0.2398,-0.2405,-0.2408,-0.2412,-0.2414,-0.2419,-0.2424,-0.2423,-0.2441,-0.2442,-0.2443,-0.2445,-0.2448,-0.245,-0.2455,-0.246,-0.2473,-0.2475,-0.2472,-0.2468,-0.2464,-0.2466,-0.2514,-0.2476,-0.2476,-0.2477,-0.2477,-0.2477,-0.237,-0.2367,-0.2376,-0.2378,-0.2384,-0.2389,-0.2387,-0.2397,-0.2398,-0.2403,-0.2412,-0.2411,-0.2419,-0.2426,-0.2431,-0.243,-0.2438,-0.2434,-0.2433,-0.2432,-0.243,-0.2463,-0.2431,-0.2431,-0.2431,-0.2431,-0.2431,0,-0.2335,-0.2342,-0.2343,-0.2351,-0.2352,-0.2364,-0.237,-0.237,-0.237,-0.2376,-0.2378,-0.2379,-0.2381,-0.2392,-0.2394,-0.2392,-0.2397,-0.2392,-0.2392,-0.2393,-0.2423,-0.2425,-0.2387,-0.2387,-0.2387,-0.2387,-0.2387,-0.2387,-0.2317,-0.2313,-0.2321,-0.2319,-0.2326,-0.2326,-0.2329,-0.2333,-0.2338,-0.2338,-0.234,-0.2347,-0.2354,-0.2358,-0.2359,-0.2362,-0.2362,-0.2355,-0.236,-0.2387,-0.2391,-0.2395,-0.2398,-0.2355,-0.2355,-0.2331,-0.233,-0.233]}]]